Regional Weather Roundup
Issued by NWS Charleston, SC

Current Version | Previous Version | Text Only | Print | Product List | Glossary Off
Versions: 1 2 3 4 5 6 7 8 9 10 11 12 13 14 15 16 17 18 19 20 21 22 23 24 25 26 27 28 29 30 31 32 33 34 35 36 37 38 39 40 41 42 43 44 45 46 47 48 49 50

000
ASUS42 KCHS 251328
RWRCHS

REGIONAL WEATHER ROUNDUP
NATIONAL WEATHER SERVICE CHARLESTON SC
900 AM EDT MON JUL 25 2016

NOTE: "FAIR" INDICATES FEW OR NO CLOUDS BELOW 12,000 FEET WITH NO
SIGNIFICANT WEATHER AND/OR OBSTRUCTIONS TO VISIBILITY.

NOT ALL STATIONS ARE QUALITY CONTROLLED. USE DATA WITH CAUTION...
ESPECIALLY DEWPOINT OBSERVATIONS.

SCZ027-030-031-034>040-042>050-251400-
...SOUTHEAST SOUTH CAROLINA...

CITY           SKY/WX    TMP DP  RH WIND       PRES   REMARKS
N CHARLESTON   MOSUNNY   85  76  74 NW3       30.09S HX  94
WATERFRONT PRK   N/A     84  77  79 VRB2      30.07R HX  94
MOUNT PLEASANT FAIR      88  75  66 CALM      30.09S HX  97
JOHNS ISLAND   FAIR      88  75  66 SW3       30.10R HX  97
PINOPOLIS        N/A     81  75  83 SW7       30.02S
MONCKS CORNER  FAIR      81  72  74 SW5       30.10R
SUMMERVILLE    FAIR      81  79  94 W3        30.10R
BEAUFORT MCAS  MOSUNNY   86  74  67 SW6       30.10R HX  94
BEAUFORT ARPT  FAIR      84  75  74 SW5       30.09S HX  92
HILTON HEAD IS MOSUNNY   90  77  66 W6        30.10R HX 102
WALTERBORO     SUNNY     86  72  62 SW7       30.11R HX  92
ALLENDALE      FAIR      82  73  74 S6        30.09R

...SOUTHERN MIDLANDS AND PEE DEE...

CITY           SKY/WX    TMP DP  RH WIND       PRES   REMARKS
GEORGETOWN     FAIR      82  75  78 SW9       30.10F
KINGSTREE      FAIR      82  73  74 S5        30.09S
ORANGEBURG     SUNNY     82  73  74 SW7       30.09R
BARNWELL       NOT AVBL
AIKEN          FAIR      81  72  74 SW5       30.12R
MANNING        FAIR      82  70  65 SW9       30.09S
COLUMBIA       PTSUNNY   85  71  63 SW8       30.07S HX  90
SUMTER         SUNNY     83  71  67 S10       30.06R
FLORENCE       MOSUNNY   83  73  72 SW12      30.09R
MYRTLE BEACH   PTSUNNY   88  72  58 W8        30.11  HX  94
N MYRTLE BEACH MOSUNNY   84  76  76 SW9       30.08S HX  93

$$

GAZ063-065-086>088-099>101-113>116-118-119-134>141-150-251400-
...SOUTHEAST GEORGIA...

CITY           SKY/WX    TMP DP  RH WIND       PRES   REMARKS
SAVANNAH ARPT  MOSUNNY   82  72  71 SW6       30.10R
HUNTER AAF     SUNNY     83  76  80 SW6       30.07R HX  91
FORT STEWART   SUNNY     78  73  83 CALM      30.07R
STATESBORO     SUNNY     83  75  76 SW3       30.09S HX  90
SYLVANIA       NOT AVBL
CLAXTON        FAIR      82  74  77 CALM      30.09S

...CSRA...CENTRAL AND FAR SOUTHEAST GEORGIA...

CITY           SKY/WX    TMP DP  RH WIND       PRES   REMARKS
THOMSON        NOT AVBL
AUGUSTA-BUSH   MOSUNNY   81  72  74 S7        30.07S
AUGUSTA-DANIEL SUNNY     81  72  74 S7        30.09R
SWAINSBORO     FAIR      81  72  74 SW3       30.10S
VIDALIA        SUNNY     82  72  69 CALM      30.10S
EASTMAN        FAIR      83  69  63 CALM      30.11S
HAZLEHURST     FAIR      83  76  78 CALM      30.09R HX  91
ALMA           SUNNY     79  73  82 S3        30.09R
WAYCROSS       SUNNY     83  77  81 SW5       30.09S HX  92
JESUP          FAIR      81  77  89 SW6       30.10R
BAXLEY         FAIR      81  77  89 S3        30.09S
BRUNSWICK      SUNNY     86  73  66 SW5       30.10S HX  93
SAINT SIMONS   SUNNY     83  72  69 SW8       30.09R

$$

SCZ027-028-034-036>038-045-046-048>050-GAZ119-141-251400-
...LAKE AND SUPPLEMENTAL COASTAL OBSERVATIONS...

STATION/POSITION TIME  TEMP    WIND        PRES    WAVE   SWELL
                       AIR SEA DIR/SP/G            HT/PER HT/PER/DIR
                 (UTC) (F)     (DEG/KT/KT) (MB)    (FT/S) (FT/S/D)
WINYAH BAY       1200   82     210/  4     1018.0
LAKE MURRAY      1200   81     200/  7/  9 1017.6R
ACE BASIN NERRS  1200   83        CALM     1019.0S
FORT PULASKI     1300   84 87  230/  5/  7 1019.4R
SAPELO ISLAND    1300   84     220/  6     1019.0S

$$

ANZ835-935-AMZ111-154-330-350-352-354-370-450-454-472-251400-
...C-MAN AND BUOY OBSERVATIONS...

STATION/POSITION TIME  TEMP    WIND        PRES    WAVE   SWELL
                       AIR SEA DIR/SP/G            HT/PER HT/PER/DIR
                 (UTC) (F)     (DEG/KT/KT) (MB)    (FT/S) (FT/S/D)
BUOY 41004       1250   85 86  230/  6/  8 1018.8R   2/ 9   2/120/ 9
BUOY 41008       1250   84 86  230/  6/ 10 1018.8R   2/ 4   2/190/ 4
FOLLY BEACH CMAN 1300   85     210/  6/  7 1019.1R
CAPERS NEARSHORE 1308   84 83  240/  8/ 12 1019.0R
FRIPP NEARSHORE  1308   84 86  320/  4/  8 1018.5R


STATION/POSITION TIME  TEMP    WIND        PRES    WAVE   SWELL
                       AIR SEA DIR/SP/G            HT/PER HT/PER/DIR
                 (UTC) (F)     (DEG/KT/KT) (MB)    (FT/S) (FT/S/D)
5E ST. MARYS GA  1301      86                N/A     2/ 8
FRYING PAN BUOY  1300   84 85  220/  8/ 10 1018.9F
BUOY 41025       1250   84 85  260/ 12/ 14 1018.7R   3/ 5   2/120/ 8
CAPE LOOKOUT NC  1300   84     250/ 10/ 12 1018.4R
BUOY 41002       1250   83 84  210/  8/ 10 1020.2R   2/ 9   2/120/ 9
BUOY 41010       1220   84 86  170/  4/  6 1018.8R
ST AUGUSTINE FL  1300   80 84  190/  1/  2 1020.0R


$$



USA.gov is the U.S. government's official web portal to all federal, state and local government web resources and services.